This is the latest recevied weather packets stored in our database for station/object K6TTR. If no packets are shown the sender has not sent any weather packets the latest 10 day(s).
| Time | Temp. | Humidity | Pressure | Rain* | Wind** | Luminosity | Snow |
|---|---|---|---|---|---|---|---|
| 1778007513 | 17.22° C | 52% | 1013.4 hPa | 0 mm | - | 1014 W/m² | - |
| 1778007219 | 17.22° C | 52% | 1013.3 hPa | 0 mm | - | 204 W/m² | - |
| 1778006926 | 17.78° C | 51% | 1013.3 hPa | 0 mm | - | 967 W/m² | - |
| 1778006611 | 17.78° C | 52% | 1013.3 hPa | 0 mm | - | 940 W/m² | - |
| 1778006316 | 17.22° C | 54% | 1013.3 hPa | 0 mm | - | 949 W/m² | - |
| 1778006021 | 17.22° C | 54% | 1013.3 hPa | 0 mm | - | 928 W/m² | - |
| 1778005727 | 17.22° C | 54% | 1013.4 hPa | 0 mm | - | 919 W/m² | - |
| 1778005411 | 16.67° C | 53% | 1013.5 hPa | 0 mm | - | 907 W/m² | - |
| 1778005116 | 16.67° C | 53% | 1013.5 hPa | 0 mm | - | 893 W/m² | - |
| 1778004820 | 16.67° C | 55% | 1013.5 hPa | 0 mm | - | 884 W/m² | - |
| 1778004527 | 16.67° C | 55% | 1013.4 hPa | 0 mm | - | 874 W/m² | - |
| 1778004214 | 16.11° C | 56% | 1013.4 hPa | 0 mm | - | 860 W/m² | - |
| 1778003918 | 16.11° C | 58% | 1013.6 hPa | 0 mm | - | 844 W/m² | - |
| 1778003622 | 16.11° C | 56% | 1013.6 hPa | 0 mm | - | 838 W/m² | - |
| 1778003328 | 15.56° C | 57% | 1013.6 hPa | 0 mm | - | 824 W/m² | - |
| 1778003014 | 15.56° C | 60% | 1013.7 hPa | 0 mm | - | 397 W/m² | - |
| 1778002719 | 15.56° C | 59% | 1013.6 hPa | 0 mm | - | 163 W/m² | - |
| 1778002420 | 15° C | 59% | 1013.6 hPa | 0 mm | - | 446 W/m² | - |
| 1778002125 | 15° C | 61% | 1013.6 hPa | 0 mm | - | 60 W/m² | - |
| 1778001812 | 15° C | 55% | 1013.8 hPa | 0 mm | - | 62 W/m² | - |
| 1778001516 | 15° C | 55% | 1013.7 hPa | 0 mm | - | 69 W/m² | - |
| 1778001222 | 14.44° C | 57% | 1013.9 hPa | 0 mm | - | 93 W/m² | - |
| 1778000929 | 14.44° C | 56% | 1013.9 hPa | 0 mm | - | 72 W/m² | - |
| 1778000616 | 13.89° C | 57% | 1014 hPa | 0 mm | - | 58 W/m² | - |
| 1778000321 | 13.89° C | 58% | 1013.9 hPa | 0 mm | - | 185 W/m² | - |
* Rain latest hour (hover to see other rain measurements)
** Current wind speed in m/s (hover to see current wind gust speed)